Location: Puketoi
(40.5833°S, 176.0167°E)
Time: 23:32:04
(UTC+00:00)

COSMOS 2455 - Pass Details

Date: 04 October 2023
Orbit: 902 x 907 km, 67.1° (Epoch: 03 December)

Event Time Altitude Azimuth Distance (km) Brightness Sun altitude
Exits shadow 11:22:50 18° 209° (SSW) 2,073 5.2 -44.1°
Drops below altitude 10° 11:25:59 10° 178° (S) 2,616 5.8 -44.2°
Sets 11:29:19 0° 160° (SSE) 3,562 6.5 -44.3°
